Location: Juzet
(42.9779°N, 0.7597°E)
Time: 08:08:17
(UTC+00:00)

Okean 1-7 - Pass Details

Date: 14 July 2020
Orbit: 592 x 618 km, 82.5° (Epoch: 04 August)

Event Time Altitude Azimuth Distance (km) Brightness Sun altitude
Rises 01:12:33 0° 353° (N) 2,902 7.6 -23.4°
Reaches altitude 10° 01:14:48 10° 356° (N) 1,991 6.6 -23.3°
Maximum altitude 01:19:12 73° 81° (E) 649 3.1 -23.0°
Enters shadow 01:19:45 64° 133° (SE) 688 3.1 -23.0°
